TimeCST,TemperatureF,Dew PointF,Humidity,Sea Level PressureIn,VisibilityMPH,Wind Direction,Wind SpeedMPH,Gust SpeedMPH,PrecipitationIn,Events,Conditions,WindDirDegrees,DateUTC
12:52 AM,12.9,10.0,88,30.04,10.0,SW,4.6,-,N/A,,Partly Cloudy,230,2012-12-30 06:52:00
1:52 AM,12.9,10.9,92,30.02,10.0,Calm,Calm,-,N/A,,Mostly Cloudy,0,2012-12-30 07:52:00
2:52 AM,10.0,9.0,95,30.04,10.0,SW,4.6,-,N/A,,Partly Cloudy,220,2012-12-30 08:52:00
3:52 AM,10.9,8.1,88,30.04,10.0,SSW,5.8,-,N/A,,Scattered Clouds,210,2012-12-30 09:52:00
4:52 AM,14.0,12.0,92,30.04,10.0,Calm,Calm,-,N/A,,Overcast,0,2012-12-30 10:52:00
5:52 AM,12.9,10.9,92,30.05,10.0,Calm,Calm,-,N/A,,Overcast,0,2012-12-30 11:52:00
6:19 AM,14.0,12.2,93,29.94,10.0,Calm,Calm,-,N/A,,Overcast,0,2012-12-30 12:19:00
6:31 AM,12.2,10.4,92,29.94,10.0,Calm,Calm,-,N/A,,Overcast,0,2012-12-30 12:31:00
6:47 AM,12.2,10.4,92,29.95,3.0,Calm,Calm,-,0.00,Snow,Light Snow,0,2012-12-30 12:47:00
6:52 AM,12.2,10.4,92,29.95,2.0,Calm,Calm,-,N/A,Snow,Light Snow,0,2012-12-30 12:52:00
6:58 AM,12.2,12.2,100,29.95,1.5,Calm,Calm,-,0.00,Snow,Light Snow,0,2012-12-30 12:58:00
7:13 AM,12.2,12.2,100,29.95,3.0,SSW,3.5,-,0.00,Snow,Light Snow,210,2012-12-30 13:13:00
7:22 AM,14.0,12.2,93,29.95,2.5,SSW,3.5,-,0.00,Snow,Light Snow,200,2012-12-30 13:22:00
7:36 AM,15.8,12.2,86,29.95,2.0,SW,5.8,-,0.01,Snow,Light Snow,220,2012-12-30 13:36:00
7:52 AM,16.0,14.0,92,30.06,2.5,SSW,4.6,-,0.01,Snow,Light Snow,210,2012-12-30 13:52:00
8:06 AM,15.8,14.0,93,29.95,4.0,SW,4.6,-,0.00,Snow,Light Snow,220,2012-12-30 14:06:00
8:52 AM,16.0,15.1,96,30.07,10.0,SSW,4.6,-,0.00,,Overcast,210,2012-12-30 14:52:00
9:52 AM,16.0,15.1,96,30.09,10.0,SSW,4.6,-,N/A,,Overcast,210,2012-12-30 15:52:00
10:52 AM,18.0,16.0,92,30.11,10.0,SW,6.9,-,N/A,,Overcast,220,2012-12-30 16:52:00
11:29 AM,19.4,17.6,93,29.99,10.0,SW,4.6,-,N/A,,Overcast,230,2012-12-30 17:29:00
11:52 AM,21.9,18.0,85,30.10,10.0,WNW,8.1,-,N/A,,Overcast,300,2012-12-30 17:52:00
12:39 PM,21.2,17.6,86,29.99,10.0,NNW,16.1,-,N/A,,Overcast,330,2012-12-30 18:39:00
12:52 PM,21.9,18.0,85,30.10,10.0,NNW,15.0,19.6,N/A,,Overcast,330,2012-12-30 18:52:00
1:52 PM,21.0,17.1,85,30.11,10.0,NNW,12.7,-,N/A,,Overcast,330,2012-12-30 19:52:00
2:34 PM,21.2,17.6,86,30.00,10.0,NNW,11.5,-,N/A,,Overcast,330,2012-12-30 20:34:00
2:52 PM,21.0,16.0,81,30.12,10.0,NNW,10.4,-,N/A,,Overcast,330,2012-12-30 20:52:00
3:52 PM,21.0,17.1,85,30.13,10.0,NW,10.4,-,N/A,,Overcast,320,2012-12-30 21:52:00
4:52 PM,17.1,14.0,88,30.16,9.0,North,8.1,-,N/A,,Overcast,350,2012-12-30 22:52:00
5:52 PM,16.0,12.0,84,30.19,7.0,NNE,13.8,-,N/A,,Overcast,20,2012-12-30 23:52:00
6:52 PM,15.1,10.9,84,30.21,10.0,NNW,6.9,-,N/A,,Overcast,340,2012-12-31 00:52:00
7:52 PM,14.0,10.0,84,30.22,10.0,NNE,9.2,-,N/A,,Overcast,20,2012-12-31 01:52:00
8:52 PM,10.9,7.0,84,30.23,10.0,NE,10.4,-,N/A,,Overcast,40,2012-12-31 02:52:00
9:52 PM,10.4,6.8,85,30.11,10.0,NNE,5.8,-,N/A,,Overcast,20,2012-12-31 03:52:00
10:52 PM,9.0,5.0,84,30.24,10.0,NNE,5.8,-,N/A,,Overcast,20,2012-12-31 04:52:00
11:52 PM,9.0,5.0,84,30.23,10.0,NNE,6.9,-,N/A,,Overcast,30,2012-12-31 05:52:00